deb Kosmos-970

Debris
NORAD ID: 64995 Int'l Des: 1977-121 Owner: PKO Country: SU
LEO

Über deb Kosmos-970

Beschreibung wird geladen...

Live-Position

3D-Globus wird geladen...

Nächste Überflüge

Höhenverlauf

Altitude vs Time

uPlot chart will show altitude changes over time

Zweizeiliger Elementsatz

1 64995U 77121DG 25330.28159995 .00000004 00000-0 10611-3 0 9998
2 64995 65.8034 325.2810 0112887 150.5648 210.1828 13.59123195551055
Epoch: 26. Nov. 2025 • Age: 278 hours

Aktueller Status

Höhe 1061.6 km
Geschwindigkeit 7.32 km/s
Subsatellitenpunkt -51.12°S, 116.41°E
Startdatum 21. Dez. 1977
Alter 47.9 years
Typ debris

Technische Details

Klassifizierung Fragmentation Debris
Masse 0.00 kg
Trockenmasse 0.00 kg
Gesamtmasse 0.00 kg
Länge 0.00 m
Durchmesser 0.00 m
Spannweite 0.00 m
Phasenstatus In Orbit
Besitzer/Staat PKO/SU

Große Konstellationen

Loading constellations...